Temperature
23 23 23 23 21 20 22 23 23 23 23 23 23 23 21 20 20 20 19 20 20 19 19 19 19 19 19 19 19 19 19 19 19 19 19 19 19 18 18 18 18 18 18 18 18 18 18 18 18
24 23 23 23 20 20 22 23 23 23 23 23 23 22 20 19 18 19 19 19 20 20 19 19 19 19 19 19 19 19 19 19 19 19 19 19 18 18 18 18 18 18 18 18 18 18 18 18 17
24 23 23 20 21 21 22 23 23 23 24 24 23 21 20 19 19 19 20 20 19 20 19 19 19 19 19 19 19 19 19 19 19 19 19 19 18 18 18 18 18 18 18 18 18 18 18 17 17
24 24 23 20 22 22 23 23 23 24 24 23 22 21 20 19 20 20 20 20 20 20 19 19 19 19 19 19 19 19 19 19 19 19 19 18 18 18 18 18 18 18 18 18 17 17 17 17 17
24 24 20 21 22 23 23 24 24 23 23 23 21 20 19 19 20 21 20 20 20 20 19 19 19 19 19 19 19 19 19 19 19 19 18 18 18 18 18 18 18 18 18 18 17 17 17 17 17
25 21 20 21 23 24 24 24 24 23 23 22 21 19 18 19 20 20 20 20 20 20 19 19 19 19 19 19 19 19 19 19 19 19 19 19 18 18 18 18 18 18 18 17 17 17 17 17 17
23 20 21 22 22 23 24 24 23 23 22 22 21 19 18 19 20 20 20 20 20 20 19 19 19 19 19 19 19 19 19 19 19 18 18 18 18 18 18 18 18 18 18 17 17 17 17 17 17
25 20 22 22 23 24 24 24 24 23 23 22 22 19 19 19 20 20 20 19 19 19 19 19 19 19 19 19 19 19 19 18 18 18 18 18 18 18 18 18 18 18 17 17 17 17 17 17 17
25 20 21 23 23 24 24 24 24 24 23 22 22 22 21 20 20 20 19 19 19 19 19 19 19 19 19 19 19 18 18 18 18 18 18 18 18 18 18 18 18 18 17 17 17 17 17 17 17
24 21 24 24 24 24 24 24 24 23 22 22 21 21 21 20 20 20 20 19 19 20 19 19 19 19 19 19 19 18 18 18 18 18 18 18 18 18 18 18 18 18 17 17 17 17 17 17 17
24 23 24 25 26 25 24 24 24 23 22 22 21 21 21 20 20 20 20 21 20 20 20 20 19 19 19 19 19 19 18 18 18 18 18 18 18 18 18 18 18 18 17 17 17 17 17 17 17
24 24 25 26 26 25 25 24 23 23 24 24 24 23 21 20 20 21 21 21 21 20 20 20 20 19 19 19 19 19 18 18 18 18 18 18 18 18 18 18 18 18 18 17 17 17 17 17 17
24 25 26 26 26 25 25 24 24 23 24 24 23 22 21 21 21 21 21 21 21 21 20 20 20 20 19 19 19 19 19 19 18 18 18 18 18 18 18 18 18 18 18 17 17 17 17 17 17
25 25 25 25 26 25 24 24 23 23 24 23 22 22 21 21 21 21 21 21 21 21 21 20 20 20 19 19 19 19 19 19 18 18 18 18 18 18 18 18 18 18 18 17 17 17 17 17 17
25 24 24 24 25 25 24 24 23 23 23 22 21 21 21 21 21 21 21 21 21 21 21 20 20 20 19 19 19 19 19 19 18 18 18 18 18 18 18 17 18 18 17 17 17 17 17 17 17
24 23 24 24 24 25 25 24 23 23 23 22 21 21 20 21 21 21 21 21 21 21 21 20 20 20 19 19 19 19 19 18 18 18 18 18 18 18 17 17 17 17 17 17 17 17 17 17 17
22 23 23 24 24 24 24 24 23 23 23 22 21 21 21 21 21 21 21 21 21 21 21 20 20 20 19 19 19 18 18 18 18 18 18 18 18 18 17 17 17 17 17 17 17 17 17 17 17
23 23 23 23 24 24 24 23 22 22 22 22 21 21 21 21 22 22 21 21 21 21 21 20 20 20 19 19 18 18 18 18 18 18 18 18 18 18 17 17 17 17 17 17 17 17 17 17 17
23 23 23 23 24 24 23 23 22 22 22 22 21 21 21 22 22 22 22 21 21 21 21 20 20 20 19 19 19 18 18 18 18 18 18 18 18 18 17 17 17 17 17 17 17 17 17 17 17
23 23 23 23 24 24 23 22 22 21 21 22 21 21 22 22 21 21 21 21 21 21 21 21 20 20 19 19 19 18 18 18 18 18 18 18 18 18 17 18 17 17 17 17 17 17 17 17 17
23 23 23 24 23 23 23 22 22 22 22 22 22 22 22 22 22 22 21 21 21 21 21 21 20 20 19 19 19 18 18 18 18 18 18 18 18 18 18 17 17 17 17 17 17 17 17 17 17
23 23 23 24 23 21 23 22 22 21 21 21 21 22 22 22 22 22 22 22 22 21 21 21 20 20 19 19 18 18 18 18 18 18 18 18 18 18 18 17 17 17 17 17 17 17 17 17 17
23 24 23 23 22 21 21 21 21 20 21 20 21 21 22 22 22 22 22 22 22 21 21 20 20 20 19 19 18 18 18 18 18 18 18 18 18 18 18 17 17 17 17 17 17 17 17 17 17
24 22 20 18 19 21 22 21 21 19 20 21 21 21 22 22 22 22 22 21 21 21 20 20 20 19 19 19 18 18 18 18 18 18 18 18 18 18 18 17 17 17 17 17 17 17 17 17 17
23 20 20 20 19 20 20 21 20 20 20 20 21 21 22 22 22 21 21 21 21 21 20 20 19 19 19 18 18 18 18 18 18 18 18 18 18 18 18 18 17 17 17 17 17 17 17 17 17
22 21 20 21 20 20 20 20 20 21 20 21 21 21 21 21 21 21 21 21 21 21 20 20 19 19 19 18 18 18 18 18 18 18 18 18 18 18 18 18 17 17 17 17 17 17 17 17 17
21 20 19 18 19 20 20 20 20 21 20 20 20 20 21 21 21 21 21 21 21 20 20 19 19 19 19 18 18 18 17 17 17 18 18 18 17 17 17 17 17 17 17 17 17 17 17 17 16
21 18 17 18 19 20 21 21 20 21 20 19 19 19 20 21 21 21 21 20 20 20 19 19 19 18 18 18 18 18 17 17 17 17 17 17 17 17 17 17 17 17 17 17 17 17 17 16 16
21 20 17 16 18 19 20 20 20 19 19 19 18 19 20 21 21 21 20 20 20 19 19 19 19 18 18 18 18 17 17 17 17 17 17 17 17 17 17 17 17 17 17 16 16 16 16 16 16
22 20 18 20 19 17 19 20 20 19 19 19 19 19 20 21 21 20 20 20 20 19 19 19 18 18 18 17 17 17 17 17 17 17 17 17 17 17 17 17 16 16 16 16 16 16 16 16 16
Wind_Speed
2 2 2 1 5 6 4 4 1 2 3 3 5 6 7 4 2 3 4 9 13 11 13 16 16 16 16 16 16 17 17 17 17 17 17 17 16 16 16 16 16 17 17 18 18 18 18 18 17
1 2 1 4 6 4 4 4 3 3 4 5 6 6 7 5 5 7 6 9 13 12 13 15 17 16 16 16 16 16 16 16 16 16 16 16 16 16 16 16 16 17 17 17 17 17 17 17 16
1 1 4 5 4 3 2 2 1 3 3 3 5 6 5 4 6 5 7 13 11 10 13 16 17 16 16 15 15 15 15 15 15 15 15 15 15 15 15 15 16 16 16 17 17 17 16 16 15
2 4 5 6 3 2 2 2 2 3 4 6 5 6 5 4 4 7 13 13 12 9 12 15 17 16 15 15 14 14 14 14 14 14 14 14 14 14 15 15 15 15 15 15 15 15 15 14 14
4 5 6 4 2 1 1 1 2 3 3 4 5 5 4 4 10 14 14 13 11 8 10 14 16 15 15 14 14 13 13 13 13 13 13 14 14 14 14 14 14 14 14 15 14 14 14 13 12
5 5 5 2 3 2 1 1 3 4 3 4 5 5 3 5 11 13 12 11 9 8 9 13 16 15 14 14 13 13 13 13 12 12 12 13 13 13 13 13 13 13 13 13 13 13 12 12 11
5 5 4 1 1 2 1 1 3 3 3 3 4 6 4 6 8 11 11 10 8 7 7 9 12 13 14 13 13 12 12 12 12 12 12 12 12 12 12 12 12 12 12 12 12 11 11 10 11
5 5 4 0 1 1 1 2 2 3 3 3 4 8 7 8 11 11 11 8 8 6 5 6 8 10 10 11 12 12 12 11 11 11 11 11 11 11 11 10 11 11 11 11 10 10 10 10 11
4 5 2 4 4 3 3 3 2 2 4 3 3 4 8 16 15 13 11 8 7 7 5 5 6 7 8 9 11 12 11 11 10 10 10 9 8 8 8 9 9 10 10 10 9 9 9 9 10
5 3 4 5 5 4 4 4 5 3 2 2 5 8 16 17 15 15 14 13 11 10 8 5 5 6 7 8 8 8 8 8 8 7 8 8 7 7 6 7 8 8 8 8 8 8 8 8 8
4 4 4 3 4 4 5 5 5 7 5 7 10 17 19 17 14 14 13 12 12 10 10 7 6 6 6 5 7 6 6 6 7 7 8 8 6 5 4 4 4 5 6 6 6 6 6 6 6
2 4 3 3 3 4 6 5 4 5 6 7 14 19 20 18 16 15 14 12 10 10 10 8 6 6 6 5 5 6 5 5 5 6 8 7 5 3 3 3 3 3 4 4 5 5 4 5 5
1 3 2 2 2 4 6 5 4 3 3 11 16 17 17 17 14 11 10 10 9 10 10 9 8 7 6 5 5 6 5 6 6 7 7 8 5 3 3 2 3 3 3 3 3 4 3 3 4
2 3 4 2 2 3 6 3 3 3 8 12 15 15 15 15 14 11 10 10 11 11 10 9 8 7 6 5 4 5 6 7 7 7 8 9 7 5 4 3 3 2 3 3 4 3 3 2 3
2 3 5 3 2 2 7 2 4 5 11 12 13 13 13 12 12 13 13 12 12 11 10 10 10 8 7 6 6 6 7 7 6 7 9 9 9 8 6 3 3 3 4 4 3 3 2 2 2
4 5 4 5 2 2 6 5 4 8 12 11 11 11 11 10 11 11 11 10 10 9 10 10 10 10 9 7 6 5 7 7 7 8 9 10 11 10 7 5 4 5 5 4 3 2 2 1 2
6 3 2 5 2 2 3 4 3 7 10 10 10 10 10 9 9 9 11 11 11 11 11 11 10 10 10 8 6 5 6 7 7 8 8 10 11 11 9 6 5 6 4 3 3 2 2 2 2
1 1 2 4 3 1 2 3 3 7 9 8 8 8 8 10 11 10 10 11 10 10 10 10 10 10 9 6 4 3 3 4 6 8 9 11 11 12 10 7 7 7 4 3 3 3 2 2 3
4 1 3 5 3 1 3 4 4 6 7 8 8 8 8 8 6 7 9 10 10 9 9 10 10 9 7 5 5 4 4 4 4 6 10 11 12 12 10 6 6 6 5 5 5 3 3 2 2
2 1 3 4 2 1 0 2 2 5 8 8 9 8 8 6 6 7 8 9 10 10 10 11 11 10 9 7 5 3 3 3 4 4 7 11 12 12 11 8 7 7 5 5 5 4 3 2 3
3 4 4 3 4 5 4 5 2 2 2 3 4 5 6 9 8 8 8 8 9 9 10 10 9 9 8 7 4 3 3 2 2 4 5 8 11 12 11 10 8 7 7 7 7 6 6 4 3
4 6 6 3 2 2 3 1 5 3 3 5 6 6 7 7 7 7 8 7 8 8 7 7 8 8 7 8 7 7 6 5 6 5 5 5 8 10 11 10 10 8 7 7 7 7 5 5 4
6 1 3 2 4 2 3 2 7 2 5 8 8 8 7 7 8 8 7 7 6 6 7 7 7 7 7 8 9 7 5 4 3 3 4 5 5 7 9 10 9 8 7 7 7 7 6 5 5
5 7 7 6 5 2 1 2 6 4 7 6 5 6 6 7 7 6 5 5 4 4 5 6 7 6 7 8 8 8 7 5 5 5 5 4 4 4 6 8 7 7 6 7 7 7 8 7 6
5 6 5 5 4 4 3 2 8 7 7 7 6 5 5 6 6 6 6 6 5 5 5 6 7 6 6 6 6 7 7 6 7 6 6 5 4 4 6 6 6 6 7 7 7 7 7 7 7
6 9 8 5 5 4 2 4 7 6 6 3 3 5 5 6 6 6 5 5 5 5 6 6 7 6 6 6 6 5 5 5 5 5 5 6 5 6 5 6 7 7 8 8 7 6 7 6 8
8 5 8 8 4 0 5 6 7 2 3 2 5 6 6 6 6 6 6 5 5 5 5 6 6 5 5 5 5 4 4 4 4 4 4 4 4 4 5 6 6 7 7 8 7 6 7 7 7
7 10 7 7 6 2 4 5 5 6 4 2 4 6 6 6 5 5 5 5 4 4 4 4 5 4 3 3 3 3 2 3 3 2 3 3 3 3 4 5 6 6 6 7 7 6 6 6 6
6 6 6 6 6 7 3 7 6 8 7 6 5 6 7 7 6 5 5 5 5 4 5 5 4 4 3 3 2 2 1 1 1 1 2 2 2 3 4 4 4 5 5 5 5 6 6 7 6
6 9 9 7 4 5 5 8 5 5 5 5 5 5 6 6 6 5 5 6 6 5 4 4 4 4 4 3 3 2 2 2 1 1 0 1 1 1 2 2 3 4 4 4 5 6 6 6 6
Wind_Direction
245 197 150 81 56 48 26 342 349 38 54 65 98 97 102 88 122 141 117 131 131 136 141 139 135 129 125 121 118 116 114 114 114 114 114 114 114 114 114 112 109 107 107 107 108 108 108 107 106
185 168 81 56 71 53 347 340 21 40 114 110 85 79 77 71 74 104 124 134 133 135 138 141 139 133 129 125 122 118 117 116 115 116 116 116 116 115 114 112 110 109 108 109 109 109 110 109 108
220 134 82 67 76 134 256 293 105 68 66 79 82 69 75 96 114 120 140 136 128 131 138 146 141 138 134 130 126 122 120 119 118 118 118 117 116 115 114 113 112 111 110 111 111 111 112 112 111
97 50 53 65 70 231 215 214 142 88 43 51 88 73 67 78 112 129 135 135 130 128 140 149 144 142 138 134 130 127 125 122 120 119 120 119 118 117 116 115 113 113 113 112 112 113 112 112 112
60 71 57 43 348 296 241 174 127 78 54 56 83 87 56 33 108 126 134 136 133 130 141 150 147 145 142 138 135 133 130 127 125 123 122 122 122 121 120 117 116 115 115 114 113 114 113 113 114
54 64 74 43 328 343 39 95 93 74 81 86 87 92 65 110 125 134 134 131 131 134 138 148 148 147 146 144 141 139 136 133 130 128 126 125 125 124 123 121 120 118 117 117 116 114 113 110 114
95 85 106 146 325 334 115 93 104 118 111 113 113 103 107 135 135 132 127 126 125 126 129 137 148 151 151 149 146 144 141 138 135 133 132 130 129 129 127 125 123 121 120 119 117 114 110 109 114
116 96 81 113 176 267 145 101 93 116 113 102 113 138 161 160 137 126 122 121 125 124 126 130 138 144 147 151 151 150 146 143 141 140 139 138 136 133 130 127 127 125 124 123 120 114 109 108 115
95 75 129 203 185 221 147 121 122 92 113 113 113 145 148 141 137 133 134 135 144 149 143 137 137 139 144 152 158 156 153 151 148 149 144 133 126 127 128 134 135 131 129 127 124 116 109 107 117
89 116 216 210 191 179 158 154 154 127 134 126 96 106 130 143 148 152 158 164 168 170 167 153 146 145 149 159 153 148 149 149 144 142 133 127 127 130 133 142 142 139 134 130 124 116 108 103 112
139 185 222 236 205 164 160 158 147 146 197 197 163 148 150 155 160 165 171 173 175 173 174 168 160 156 155 148 143 140 138 139 140 143 141 138 133 129 125 127 130 130 128 117 112 105 104 111 120
181 244 219 228 182 159 166 151 151 189 217 175 155 152 156 165 173 177 177 177 170 172 180 172 166 161 162 155 149 147 148 150 153 155 154 149 143 138 138 136 136 128 124 115 110 112 117 116 131
222 281 285 221 213 171 143 150 160 211 159 132 141 153 165 174 180 181 177 172 169 179 183 178 171 172 169 162 165 165 169 172 172 169 171 170 164 167 165 157 156 154 149 140 127 127 131 126 133
262 280 311 304 155 150 138 143 140 205 142 140 152 166 176 181 180 175 174 178 182 185 185 177 177 178 175 176 178 175 181 183 180 181 186 183 180 178 176 178 177 181 174 161 146 143 143 137 143
323 349 0 13 74 129 116 101 201 170 145 153 169 175 180 186 183 186 187 187 187 187 182 179 182 180 181 185 190 189 187 188 190 192 193 189 191 189 185 186 193 197 179 159 141 132 126 131 140
36 40 9 325 23 115 133 217 214 158 154 166 178 180 184 189 191 193 188 186 185 182 181 183 188 185 190 190 191 192 190 192 200 201 198 198 199 195 185 189 203 198 180 168 154 143 134 135 142
32 44 335 315 327 110 157 224 198 165 167 178 182 182 186 186 194 195 190 187 185 186 182 181 185 186 193 192 187 193 196 199 203 203 204 205 202 198 191 195 201 187 177 178 179 156 154 160 163
166 59 313 285 284 106 201 241 201 176 178 187 186 186 190 195 199 191 187 188 187 187 182 180 188 189 184 179 171 181 193 200 201 205 209 208 203 196 191 194 195 182 173 181 172 160 142 149 156
145 153 275 264 262 183 228 240 217 177 181 191 195 194 201 203 190 178 179 183 185 184 178 181 191 189 177 174 181 189 203 203 201 208 210 205 200 194 189 191 186 183 185 188 175 157 149 148 132
153 298 289 301 352 103 224 304 244 188 196 195 198 202 202 189 177 179 178 179 187 188 185 184 190 187 185 188 183 180 179 196 206 206 207 208 202 195 195 191 190 186 183 180 178 161 152 168 163
216 202 224 261 357 33 68 360 329 261 209 198 198 197 192 192 189 185 183 187 184 188 191 192 186 185 183 172 150 135 129 137 182 203 208 209 205 202 199 196 191 188 187 191 191 179 170 179 191
247 223 200 198 80 337 52 288 286 279 255 231 216 201 197 191 181 186 188 188 188 190 186 179 175 178 175 168 171 174 184 194 203 200 204 203 204 204 204 199 194 191 191 194 196 188 182 171 188
210 151 137 119 132 58 27 137 284 323 254 248 229 209 196 184 178 190 191 189 185 174 176 175 173 175 175 178 184 187 196 200 186 183 190 199 203 204 205 203 199 196 195 198 197 188 190 188 189
145 72 56 47 71 60 273 167 272 245 237 253 231 203 189 172 171 179 172 162 159 154 162 168 173 181 180 183 187 191 195 194 188 193 197 201 207 206 207 205 202 201 200 201 201 197 197 200 195
106 93 42 15 21 253 281 206 250 259 251 238 225 193 173 156 153 154 155 158 159 158 163 164 171 181 181 183 189 195 199 196 203 204 204 204 209 214 215 208 205 207 208 207 200 198 205 204 200
162 139 153 178 206 269 327 238 260 275 285 246 176 145 136 141 144 147 156 156 156 159 156 158 171 180 181 188 194 197 198 200 209 209 205 210 217 221 214 207 209 212 210 211 204 208 212 210 212
133 160 152 128 143 80 292 291 302 313 358 69 115 120 131 139 142 144 149 150 148 151 154 158 163 170 179 187 186 185 189 197 207 211 209 217 223 225 213 210 212 216 212 210 203 211 214 209 212
137 139 109 121 141 210 293 284 256 267 256 182 143 141 136 134 136 138 141 143 141 142 136 133 142 156 160 159 164 170 179 198 204 203 211 225 234 235 221 215 212 214 214 210 204 207 210 205 210
114 104 106 110 141 150 214 266 230 223 220 199 182 159 148 146 145 144 147 139 127 115 117 124 128 119 111 120 129 125 136 165 180 203 226 227 228 216 214 217 212 212 213 205 199 207 201 203 208
155 160 146 147 185 165 168 258 274 222 209 183 168 150 144 141 137 140 135 128 125 123 124 123 119 114 111 108 103 107 98 83 80 71 269 210 201 206 212 213 211 213 210 200 197 204 202 198 200
Height
1492 1491 1490 1492 1495 1507 1511 1505 1499 1498 1498 1499 1500 1502 1505 1509 1513 1518 1516 1517 1521 1524 1527 1530 1532 1534 1536 1537 1539 1540 1541 1542 1543 1544 1545 1546 1547 1548 1549 1550 1550 1551 1552 1553 1554 1555 1556 1557 1558
1492 1491 1493 1493 1505 1522 1516 1504 1501 1500 1500 1500 1502 1504 1506 1509 1511 1512 1514 1519 1523 1526 1529 1531 1534 1536 1538 1539 1541 1542 1543 1544 1545 1546 1547 1548 1549 1550 1551 1552 1553 1554 1554 1555 1557 1558 1559 1560 1561
1493 1493 1495 1498 1511 1519 1514 1503 1501 1500 1501 1501 1504 1506 1508 1511 1512 1514 1516 1520 1524 1527 1530 1533 1535 1538 1539 1541 1543 1544 1545 1546 1547 1548 1549 1551 1552 1552 1553 1554 1555 1556 1557 1558 1559 1560 1561 1563 1564
1494 1495 1497 1505 1512 1508 1505 1502 1501 1501 1503 1503 1505 1509 1511 1514 1514 1516 1519 1522 1526 1529 1532 1535 1537 1539 1541 1543 1545 1546 1547 1549 1550 1551 1552 1553 1554 1555 1556 1557 1558 1559 1560 1561 1562 1563 1564 1565 1566
1495 1496 1505 1514 1511 1504 1501 1501 1501 1502 1504 1506 1506 1510 1513 1516 1517 1519 1521 1525 1528 1531 1534 1536 1539 1541 1543 1545 1546 1548 1549 1550 1552 1553 1554 1555 1556 1557 1558 1559 1560 1561 1562 1563 1565 1566 1567 1568 1569
1496 1498 1515 1520 1512 1504 1502 1502 1502 1504 1506 1507 1508 1511 1515 1517 1518 1521 1523 1526 1530 1533 1536 1538 1540 1542 1544 1546 1548 1550 1551 1552 1553 1554 1556 1557 1558 1559 1560 1561 1563 1564 1565 1566 1567 1568 1570 1571 1572
1498 1505 1515 1515 1513 1507 1503 1503 1504 1505 1507 1508 1509 1512 1516 1518 1520 1522 1525 1528 1531 1534 1537 1539 1541 1544 1546 1547 1549 1551 1552 1554 1555 1556 1557 1559 1560 1561 1562 1564 1565 1566 1567 1568 1570 1571 1572 1573 1574
1498 1504 1513 1515 1513 1509 1503 1504 1505 1506 1508 1510 1510 1511 1515 1517 1520 1523 1526 1530 1533 1535 1538 1540 1543 1545 1547 1549 1550 1552 1554 1555 1556 1558 1559 1560 1562 1563 1564 1566 1567 1568 1569 1570 1572 1573 1574 1575 1576
1499 1510 1517 1512 1510 1506 1502 1504 1506 1507 1508 1509 1510 1511 1513 1517 1520 1524 1527 1530 1533 1536 1538 1541 1543 1546 1548 1550 1551 1553 1555 1556 1558 1559 1561 1562 1563 1564 1566 1567 1568 1570 1571 1572 1574 1575 1576 1577 1578
1499 1512 1508 1502 1501 1501 1501 1503 1506 1507 1508 1509 1510 1512 1514 1517 1520 1523 1526 1529 1532 1535 1538 1541 1544 1546 1548 1550 1552 1554 1556 1557 1559 1560 1561 1563 1564 1566 1567 1568 1570 1571 1572 1574 1575 1577 1578 1579 1580
1499 1503 1500 1498 1498 1499 1500 1503 1505 1506 1508 1507 1507 1510 1513 1517 1520 1523 1526 1529 1531 1535 1538 1541 1544 1546 1549 1551 1552 1554 1556 1558 1559 1561 1562 1564 1565 1567 1568 1570 1571 1572 1574 1575 1576 1578 1579 1580 1582
1499 1498 1497 1497 1497 1498 1499 1502 1504 1505 1504 1505 1507 1509 1512 1516 1519 1522 1525 1529 1532 1535 1538 1541 1544 1546 1549 1551 1553 1555 1557 1558 1560 1561 1563 1565 1566 1568 1569 1571 1572 1573 1575 1576 1577 1579 1580 1582 1583
1498 1497 1496 1495 1495 1496 1499 1501 1503 1504 1504 1505 1508 1511 1513 1516 1519 1523 1527 1530 1532 1535 1538 1541 1544 1546 1548 1551 1553 1555 1557 1559 1560 1562 1564 1565 1567 1568 1570 1571 1573 1574 1576 1577 1578 1580 1581 1582 1584
1497 1496 1495 1494 1495 1496 1499 1502 1504 1503 1505 1507 1509 1511 1514 1517 1520 1523 1526 1529 1532 1535 1538 1541 1544 1546 1548 1550 1553 1555 1557 1558 1560 1562 1564 1566 1567 1569 1571 1572 1574 1575 1576 1578 1579 1580 1582 1583 1584
1497 1497 1497 1496 1495 1497 1500 1505 1503 1503 1504 1507 1510 1512 1515 1517 1520 1522 1525 1528 1531 1534 1537 1540 1543 1546 1548 1550 1552 1554 1556 1558 1560 1562 1563 1565 1567 1569 1571 1572 1574 1575 1577 1578 1579 1581 1582 1583 1584
1498 1503 1508 1500 1497 1497 1503 1510 1502 1502 1504 1507 1509 1512 1515 1517 1520 1523 1526 1528 1531 1534 1537 1540 1542 1544 1547 1550 1552 1554 1556 1558 1559 1561 1563 1565 1566 1568 1570 1572 1574 1575 1577 1578 1579 1580 1582 1583 1584
1510 1515 1513 1505 1498 1498 1502 1506 1501 1502 1503 1505 1508 1512 1514 1517 1519 1522 1525 1527 1530 1533 1535 1538 1541 1543 1546 1548 1550 1553 1555 1557 1558 1560 1562 1564 1566 1567 1569 1571 1573 1575 1576 1578 1579 1580 1581 1582 1584
1516 1515 1514 1511 1500 1500 1503 1503 1501 1502 1503 1505 1508 1511 1513 1514 1516 1520 1523 1526 1529 1532 1534 1536 1539 1542 1544 1547 1549 1551 1553 1555 1556 1558 1560 1563 1565 1566 1568 1570 1572 1574 1575 1577 1578 1579 1581 1582 1583
1507 1511 1514 1508 1499 1501 1503 1503 1501 1501 1503 1505 1507 1508 1510 1513 1517 1519 1521 1524 1527 1530 1532 1535 1537 1540 1542 1544 1546 1548 1550 1552 1554 1556 1558 1561 1563 1565 1567 1569 1570 1572 1574 1575 1577 1578 1579 1580 1582
1506 1511 1512 1506 1499 1501 1505 1505 1501 1501 1501 1503 1505 1507 1509 1512 1515 1517 1519 1522 1524 1527 1530 1532 1535 1538 1540 1542 1544 1546 1548 1550 1552 1554 1556 1558 1561 1563 1565 1567 1569 1570 1572 1573 1575 1576 1577 1579 1580
1506 1509 1508 1508 1503 1502 1506 1511 1505 1502 1502 1503 1505 1506 1508 1509 1512 1515 1517 1519 1521 1524 1527 1530 1532 1535 1537 1540 1542 1544 1546 1548 1550 1551 1553 1555 1558 1560 1562 1564 1566 1568 1569 1571 1572 1574 1575 1576 1578
1509 1499 1501 1504 1512 1519 1513 1527 1511 1505 1503 1501 1501 1503 1505 1507 1510 1512 1515 1517 1519 1521 1524 1528 1530 1533 1535 1537 1539 1541 1542 1544 1546 1549 1551 1553 1555 1558 1560 1562 1564 1565 1567 1568 1570 1571 1573 1574 1575
1499 1495 1499 1504 1511 1521 1519 1526 1519 1507 1506 1500 1498 1499 1501 1504 1507 1510 1513 1515 1518 1520 1523 1525 1528 1530 1532 1534 1536 1538 1540 1542 1544 1546 1548 1550 1552 1554 1556 1558 1560 1562 1564 1565 1567 1568 1570 1571 1572
1493 1500 1507 1516 1522 1533 1523 1527 1523 1511 1502 1497 1495 1496 1498 1502 1505 1508 1511 1514 1516 1518 1520 1522 1525 1527 1529 1531 1534 1536 1538 1540 1541 1543 1545 1547 1549 1551 1553 1555 1556 1558 1560 1562 1564 1565 1567 1568 1569
1495 1514 1534 1535 1543 1539 1524 1524 1521 1501 1495 1493 1493 1494 1497 1500 1503 1507 1509 1512 1514 1516 1518 1520 1522 1525 1527 1529 1531 1533 1535 1537 1538 1540 1542 1544 1545 1547 1549 1551 1553 1554 1556 1558 1560 1561 1562 1564 1565
1497 1507 1532 1542 1545 1538 1525 1525 1510 1496 1492 1490 1492 1494 1496 1500 1503 1506 1509 1511 1513 1515 1517 1519 1521 1523 1525 1527 1529 1531 1532 1534 1535 1537 1538 1540 1542 1544 1546 1547 1549 1550 1552 1553 1555 1557 1558 1560 1561
1499 1505 1507 1528 1534 1537 1531 1519 1503 1494 1493 1492 1492 1494 1496 1499 1502 1505 1507 1510 1512 1514 1516 1518 1520 1522 1523 1525 1527 1528 1529 1531 1532 1534 1535 1537 1538 1540 1541 1543 1544 1546 1547 1549 1550 1552 1553 1555 1557
1487 1499 1515 1528 1542 1543 1530 1523 1516 1499 1496 1494 1494 1495 1496 1499 1502 1505 1507 1510 1512 1514 1516 1518 1519 1521 1522 1524 1525 1526 1527 1529 1530 1531 1532 1533 1535 1536 1537 1538 1540 1541 1543 1544 1546 1547 1549 1550 1552
1494 1501 1511 1524 1527 1540 1540 1527 1497 1495 1493 1493 1493 1494 1496 1499 1501 1504 1507 1509 1511 1514 1515 1517 1518 1519 1521 1523 1524 1525 1526 1527 1528 1529 1530 1531 1531 1532 1533 1534 1535 1536 1538 1540 1541 1542 1544 1545 1547
1482 1492 1503 1517 1525 1529 1532 1522 1489 1489 1489 1491 1493 1495 1497 1499 1502 1504 1506 1509 1511 1513 1515 1517 1518 1519 1521 1522 1523 1524 1525 1525 1526 1527 1528 1528 1529 1529 1529 1530 1531 1532 1533 1535 1536 1538 1539 1541 1542